Lapse_Rate
6.9 7.0 7.4 7.4 7.8 8.0 7.7 7.5 7.3 7.3 7.3 7.7 8.5 8.5 8.5 8.7 8.6 8.7 8.7 8.7 8.9 8.7 8.6 8.7 8.6 8.5 8.6 8.4 8.4 8.3 8.1 8.0 7.9 7.5 7.2 7.2 7.2 7.1 7.1 7.1 7.0 6.8 6.9 6.8
7.1 7.1 7.4 7.3 7.5 7.7 7.4 7.0 7.1 7.4 6.9 7.5 8.1 8.2 8.5 8.7 8.8 8.7 8.9 8.9 8.8 9.0 8.9 8.9 9.0 9.1 8.9 8.8 8.5 8.3 8.0 7.9 7.7 7.7 7.6 7.5 7.3 7.3 7.2 7.1 7.1 6.7 6.7 6.8
7.4 7.4 7.5 7.2 6.8 7.0 7.3 7.1 7.2 7.1 6.8 7.4 8.2 8.3 8.4 8.5 8.7 8.7 9.0 9.1 9.0 8.8 8.8 9.0 9.1 9.1 8.9 8.6 8.5 8.4 8.2 7.9 7.6 7.4 7.3 7.2 7.2 7.2 7.2 7.1 6.9 6.8 6.8 6.8
6.7 7.5 6.2 6.9 7.4 7.6 7.3 7.5 7.4 7.1 6.8 7.2 8.0 8.6 8.4 8.2 8.4 8.4 8.6 8.7 9.0 8.9 8.9 8.9 9.1 9.0 8.8 8.5 8.3 8.0 7.8 7.8 7.4 7.2 7.1 7.0 6.9 6.8 6.7 6.7 6.7 6.9 6.8 6.9
6.5 6.3 7.0 7.0 7.4 7.7 7.6 7.5 7.1 6.6 7.0 7.6 8.0 8.3 8.4 8.5 8.6 8.7 8.4 8.7 8.8 8.9 9.0 9.2 9.2 8.9 8.5 8.3 8.2 7.9 7.7 7.6 7.2 6.9 6.7 6.7 6.6 6.5 6.6 6.8 6.9 6.8 6.8 6.8
6.7 6.5 6.3 7.9 7.9 7.5 7.3 6.7 7.7 6.9 6.8 7.3 7.5 8.1 8.5 8.7 8.6 8.5 8.8 8.9 9.0 9.0 9.3 9.2 9.1 9.0 8.6 8.3 8.2 8.0 7.6 7.4 7.2 7.0 6.8 6.7 6.8 7.0 7.0 6.9 6.8 6.7 6.7 6.6
7.4 7.5 7.2 7.7 8.0 7.6 7.0 8.0 7.4 7.3 7.4 7.3 7.4 7.3 8.4 8.6 8.6 8.3 8.3 8.9 9.2 9.2 9.1 9.1 8.8 8.4 8.3 8.2 8.1 7.8 7.5 7.2 7.1 7.0 6.9 6.9 6.9 6.8 6.7 6.6 6.6 6.6 6.6 6.5
6.9 6.7 6.9 8.2 7.8 7.4 7.5 7.8 7.6 7.4 6.5 6.6 6.6 7.4 8.1 8.4 8.5 8.7 8.5 8.5 8.9 9.0 9.1 8.9 8.7 8.4 8.1 8.0 7.8 7.6 7.5 7.4 7.3 7.2 7.0 6.8 6.8 6.8 6.7 6.7 6.6 6.6 6.5 6.3
7.7 7.7 7.5 7.7 7.7 7.5 7.2 7.1 7.6 7.5 6.6 6.1 6.3 6.2 7.2 7.9 8.3 8.3 8.6 8.7 8.9 8.9 8.5 8.4 8.5 8.3 8.0 7.9 7.8 7.8 7.8 7.5 7.3 7.2 7.2 7.1 6.9 6.8 6.9 6.8 6.7 6.5 6.2 6.0
7.3 7.4 7.5 7.7 7.7 8.0 7.3 7.4 7.6 7.5 7.3 6.7 6.6 6.6 7.1 7.9 8.1 8.1 8.3 8.5 8.6 8.4 8.4 8.4 8.3 8.3 8.0 7.9 7.8 7.6 7.4 7.4 7.4 7.3 7.0 6.8 6.6 6.5 6.5 6.4 6.3 6.0 5.8 5.6
6.9 7.3 7.2 7.3 7.6 7.7 7.4 7.4 7.5 7.5 7.5 7.3 6.8 6.4 6.5 6.8 7.7 8.1 7.9 8.1 8.1 8.1 8.2 8.2 8.2 8.2 8.0 7.8 7.6 7.4 7.4 7.3 7.1 6.8 6.5 6.4 6.4 6.3 6.0 5.8 5.6 5.4 5.3 5.2
6.7 7.0 7.1 7.9 8.0 8.0 7.5 7.6 7.5 7.6 7.6 7.4 7.0 7.0 7.2 7.4 7.1 7.5 7.1 7.5 6.6 6.8 7.1 7.5 7.1 7.2 7.3 7.2 7.5 7.3 7.0 6.9 6.7 6.6 6.4 6.0 5.8 5.7 5.4 5.0 4.8 5.0 5.0 4.9
6.5 6.7 7.0 7.6 7.5 7.7 7.8 7.8 7.8 7.8 7.3 7.0 6.7 6.4 6.6 7.0 7.3 7.0 7.1 6.5 6.1 6.1 6.1 6.6 6.4 6.3 6.2 6.8 6.9 6.7 6.5 6.5 6.4 6.0 5.7 5.7 5.8 5.1 4.5 5.0 4.7 4.4 4.4 4.2
6.3 6.7 6.9 7.1 7.6 8.0 7.9 7.7 7.9 7.8 7.5 7.3 6.7 6.3 6.4 6.5 6.4 6.3 6.5 6.0 6.0 6.0 6.1 6.3 6.4 6.5 6.3 6.1 6.3 6.4 6.2 6.0 6.0 5.8 5.5 5.1 4.7 4.6 4.8 4.5 4.4 4.3 4.2 4.0
6.5 6.5 6.9 7.3 7.1 7.7 7.8 7.6 7.8 7.7 7.4 7.3 7.1 6.9 6.7 6.6 6.6 6.5 6.5 6.6 6.0 6.1 6.1 6.1 6.3 6.1 6.0 6.0 6.0 5.8 5.6 5.5 5.4 5.5 5.5 5.0 4.6 4.4 4.4 4.4 4.3 4.1 3.8 3.6
6.9 6.9 7.0 7.1 7.1 7.3 7.5 7.8 7.4 7.4 7.3 7.1 7.1 7.0 6.9 6.8 6.7 6.7 6.4 6.3 6.1 6.2 6.1 6.1 5.9 5.8 5.7 5.9 6.0 5.9 5.9 5.8 5.4 4.9 4.5 4.4 4.3 4.3 4.3 4.0 3.6 3.5 3.4 3.3
7.4 6.9 7.4 7.3 7.3 7.3 7.4 7.4 7.3 7.4 7.2 7.1 7.1 7.0 6.9 6.9 6.7 6.5 6.4 6.4 6.4 6.2 6.5 6.6 6.6 6.7 6.7 6.5 6.2 5.6 5.0 4.7 4.4 4.4 4.3 4.3 4.3 4.0 3.8 3.7 3.5 3.5 3.4 3.4
7.2 6.8 6.9 7.0 6.9 7.1 7.3 7.3 7.3 7.4 7.2 7.2 7.1 6.9 6.8 6.8 6.7 6.5 6.6 6.7 6.9 6.9 6.9 6.9 6.9 6.3 5.7 5.4 4.8 4.4 4.5 4.3 4.3 4.2 4.1 3.9 3.7 3.6 3.6 3.6 3.6 3.6 3.5 3.4
6.9 6.9 6.7 6.3 6.7 6.9 7.1 7.1 7.2 7.0 6.8 6.7 6.7 6.8 6.7 6.3 6.4 6.6 6.8 6.8 6.9 6.8 6.1 5.6 5.0 4.7 4.3 4.3 4.3 4.3 4.1 4.0 3.9 3.9 3.7 3.7 3.8 3.7 3.7 3.7 3.6 3.5 3.3 3.3
6.7 6.8 6.7 6.2 6.4 6.9 7.1 7.0 6.9 7.0 6.4 6.3 6.3 6.2 6.1 6.2 6.4 6.2 5.9 5.4 4.8 4.5 4.4 4.4 4.5 4.5 4.4 4.1 4.0 3.9 3.9 3.8 3.8 3.8 3.8 3.8 3.8 3.8 3.7 3.5 3.5 3.4 3.4 3.3
6.3 6.4 6.5 6.4 6.4 6.5 6.4 6.6 6.7 6.8 6.2 5.7 5.8 5.8 5.6 5.4 5.0 4.5 4.4 4.4 4.3 4.3 4.3 4.3 4.1 3.9 4.0 4.1 4.1 3.9 3.8 4.0 3.8 3.8 3.8 3.8 3.7 3.6 3.5 3.5 3.5 3.4 3.2 3.1
5.6 5.6 5.4 5.5 5.5 5.6 5.7 5.8 5.9 6.0 5.8 5.5 5.1 4.8 4.7 4.5 4.3 4.1 4.1 4.1 4.1 4.0 4.0 3.9 4.0 4.0 3.9 3.9 4.1 4.0 3.9 3.7 3.7 3.6 3.6 3.6 3.5 3.5 3.4 3.3 3.1 3.1 3.0 2.8
4.7 4.7 4.6 4.6 4.8 5.1 5.0 4.8 4.8 4.6 4.5 4.3 4.3 4.2 4.0 3.9 3.8 3.7 3.6 3.8 3.8 3.9 3.9 3.9 4.0 4.2 4.1 4.0 3.8 3.6 3.6 3.6 3.6 3.6 3.5 3.5 3.6 3.5 3.3 3.2 3.2 3.2 3.3 3.3
3.8 3.6 3.7 4.0 4.0 4.1 4.3 4.2 4.0 4.0 4.0 4.0 3.7 3.6 3.7 3.7 3.8 3.9 3.9 3.9 3.8 4.0 4.2 4.1 4.1 3.9 3.7 3.7 3.6 3.6 3.7 3.7 3.7 3.8 3.9 3.8 3.5 3.4 3.5 3.7 3.9 3.8 3.6 3.4
3.5 3.7 3.8 3.7 3.8 3.9 3.9 3.7 3.6 3.7 3.8 3.8 3.9 4.1 4.2 4.3 4.1 4.3 4.6 4.4 4.3 4.2 4.1 4.0 3.9 3.8 3.8 3.9 3.9 4.0 4.1 4.1 3.9 3.8 3.8 3.7 3.9 4.1 4.1 3.9 3.7 3.5 3.5 3.7
3.4 3.6 3.6 3.6 3.7 3.7 3.7 3.7 3.6 3.8 3.9 4.0 4.0 4.1 4.1 4.3 4.3 4.4 4.4 4.3 4.2 4.0 4.0 4.1 4.1 4.2 4.2 4.2 4.2 4.2 4.1 4.1 4.2 4.4 4.5 4.5 4.4 4.1 4.0 3.8 3.8 4.0 4.2 4.3
3.8 3.9 3.9 4.0 4.2 4.3 4.4 4.6 4.6 4.3 4.0 4.1 4.4 4.6 4.7 4.6 4.5 4.4 4.4 4.4 4.4 4.3 4.3 4.3 4.3 4.3 4.4 4.4 4.4 4.5 4.6 4.7 4.9 4.8 4.7 4.5 4.2 4.2 4.2 4.3 4.5 4.6 4.7 4.5
Wind_Speed
14 11 16 5 5 7 9 6 9 4 8 10 9 9 9 7 5 6 8 7 9 9 9 9 9 10 12 13 16 17 18 19 21 19 17 12 9 9 8 9 8 6 5 5
10 9 11 12 11 10 7 5 4 2 8 6 10 8 6 8 6 7 9 10 9 8 6 8 9 9 8 9 12 15 16 17 15 10 9 8 5 6 6 5 6 7 6 7
3 5 6 7 13 7 4 6 5 4 4 7 7 9 9 11 8 9 10 12 11 11 13 12 7 6 6 6 6 9 11 9 10 8 7 5 5 5 5 5 6 6 6 7
4 1 3 5 7 13 15 13 9 6 6 14 15 11 9 7 8 9 10 10 12 10 6 7 7 8 8 9 7 9 8 8 7 7 6 6 5 5 6 4 6 6 6 7
2 4 5 4 2 5 6 8 7 9 9 15 11 6 8 9 12 15 13 13 10 9 7 11 10 10 9 8 8 9 8 8 7 7 7 7 6 6 6 7 7 6 6 8
3 3 3 6 6 0 5 5 2 3 2 6 4 0 6 3 2 10 7 4 6 9 12 13 12 11 11 9 9 8 7 7 7 7 8 7 8 8 4 7 8 8 10 9
1 3 5 10 7 2 4 6 3 1 4 2 5 6 7 8 8 4 1 5 9 7 11 13 13 12 10 10 9 9 9 9 8 8 8 8 8 7 8 9 10 10 11 10
3 2 6 3 3 4 5 3 1 4 6 6 7 10 8 8 7 3 5 5 8 11 10 11 11 11 11 10 10 10 10 10 9 9 7 7 10 9 9 10 10 9 10 9
6 5 4 4 5 3 3 5 4 6 2 6 3 8 12 8 6 5 6 6 5 12 13 9 9 10 13 10 11 11 12 11 10 10 8 8 9 9 8 8 7 7 7 7
2 3 4 7 7 4 2 8 7 5 6 5 4 4 5 6 6 6 8 8 6 8 12 10 9 9 12 12 12 12 12 11 9 10 10 9 6 5 6 6 6 6 6 6
5 5 10 8 7 8 9 6 7 7 5 6 2 3 4 5 7 6 8 10 10 8 10 11 11 10 9 10 12 12 11 9 8 8 9 10 10 6 6 6 5 6 5 6
4 3 2 10 14 11 8 8 7 5 4 6 5 7 7 9 10 11 4 13 10 10 10 13 13 12 9 9 9 11 11 8 7 8 8 9 9 10 22 17 20 19 16 8
4 7 6 18 19 15 11 5 4 9 7 6 10 7 6 8 9 14 15 14 13 12 11 13 14 14 13 11 14 13 12 11 9 9 8 8 8 7 8 12 19 18 17 16
4 11 6 7 11 16 7 7 11 14 12 12 13 13 13 14 14 14 16 15 13 14 14 15 16 16 12 13 17 16 15 16 10 9 8 7 6 6 5 5 5 4 10 10
11 11 5 6 10 13 10 7 12 13 12 15 16 14 14 16 16 14 14 14 16 17 14 16 17 14 12 14 15 14 11 9 9 9 8 8 7 7 6 6 5 4 5 7
14 5 10 10 11 12 10 12 11 10 11 13 15 16 16 17 17 17 16 15 15 14 14 15 15 12 12 14 14 12 12 16 12 8 7 8 7 7 6 6 5 5 5 5
12 7 9 9 9 10 12 10 11 11 13 14 14 15 16 18 18 18 17 16 16 16 15 15 13 13 14 14 13 9 9 9 12 8 7 7 6 7 6 5 5 5 5 6
8 6 5 6 5 6 11 11 12 14 14 15 15 16 16 17 17 15 15 15 17 18 16 14 14 14 14 13 12 9 8 8 8 8 7 7 7 6 6 6 6 5 5 5
10 10 8 10 5 7 11 11 13 14 13 14 16 17 16 16 15 14 14 16 16 16 12 13 17 16 14 14 12 9 8 9 8 8 7 8 7 6 6 5 4 4 4 3
10 10 12 12 8 9 13 11 13 14 13 15 17 17 17 15 14 15 16 17 12 8 10 12 13 13 13 13 12 8 9 8 8 7 6 6 6 5 4 6 4 3 3 3
10 11 12 11 11 11 13 11 13 15 14 15 16 16 15 13 12 11 13 11 11 12 13 15 11 8 8 9 9 8 8 7 7 6 6 5 5 4 4 4 4 4 3 3
10 10 11 12 14 15 14 13 14 16 16 16 16 16 16 15 14 14 13 11 8 13 9 8 8 12 9 11 7 7 8 8 6 5 4 4 4 4 3 3 3 3 3 3
10 12 13 14 15 15 14 14 14 15 15 13 13 13 12 9 7 8 10 10 8 10 9 7 10 13 12 7 7 6 6 5 5 4 3 3 3 3 2 2 2 3 3 3
11 12 12 13 13 14 15 12 14 14 14 14 13 11 11 9 10 9 9 11 12 10 8 7 9 11 9 5 5 5 5 4 3 2 3 4 3 2 3 3 3 3 3 4
10 11 11 12 13 9 11 10 11 12 13 13 13 12 13 8 8 7 7 7 11 9 7 9 10 9 4 4 4 3 3 2 2 2 3 3 2 3 2 3 3 3 3 3
10 8 9 12 9 7 7 7 8 7 7 8 8 7 8 7 7 7 7 8 7 8 5 4 3 3 3 3 3 3 3 3 3 3 3 3 3 2 3 3 3 3 4 8
9 9 7 8 7 7 7 7 7 7 6 7 8 7 7 6 6 7 7 5 4 4 2 2 1 2 3 3 3 2 2 3 5 3 3 1 2 3 4 6 9 11 12 12
Wind_Direction
243 229 248 235 185 177 212 190 216 216 211 250 256 256 248 238 229 206 241 219 217 214 212 202 191 187 194 187 186 188 195 198 207 213 218 218 198 199 204 205 211 209 179 151
243 211 215 229 233 216 199 228 243 209 261 258 255 280 283 235 223 224 213 235 219 219 233 216 209 194 186 179 177 179 190 199 205 201 194 190 171 161 165 165 160 159 166 163
244 172 142 258 223 223 220 200 156 204 218 267 241 242 251 257 215 227 217 213 212 211 217 219 193 149 151 126 122 168 182 172 168 161 161 148 132 137 145 135 123 124 129 134
279 108 170 266 202 228 239 254 236 222 242 263 268 270 275 256 231 225 224 211 215 224 190 138 130 111 121 126 129 132 141 138 137 136 132 128 134 134 121 126 135 135 132 124
329 328 288 311 210 203 178 256 227 213 230 256 273 266 293 237 216 227 221 226 214 203 133 132 131 130 127 125 125 128 136 135 135 138 135 134 137 133 124 120 109 104 105 107
238 133 291 255 310 329 134 289 308 174 182 285 292 64 254 329 311 275 249 199 153 139 134 133 140 136 135 131 124 124 126 124 126 130 136 128 115 112 96 102 93 86 72 74
190 264 261 259 310 359 131 235 202 112 294 327 228 230 273 301 319 4 169 155 124 131 137 136 142 139 128 125 122 122 117 116 109 104 105 108 102 107 106 98 93 86 83 70
183 208 277 304 262 130 250 255 355 31 7 343 314 304 292 312 327 45 106 128 122 126 126 135 139 126 120 112 120 117 111 102 98 99 104 110 108 99 100 105 100 95 92 80
185 221 261 224 262 226 170 278 214 130 237 267 255 311 334 331 15 56 93 104 96 125 118 111 109 120 113 120 114 108 101 97 93 88 84 92 102 104 100 102 107 107 103 100
22 310 274 291 302 276 210 235 247 236 194 198 254 318 347 22 36 61 62 46 83 115 105 101 101 102 111 114 112 107 104 103 100 96 89 78 77 86 103 110 111 115 122 124
271 323 329 295 266 255 257 269 292 298 300 320 303 45 76 78 62 62 71 76 63 58 81 81 85 90 100 108 119 115 112 111 102 94 90 84 64 50 68 46 82 115 97 104
231 289 252 273 290 320 264 244 240 252 333 13 47 79 88 71 69 61 40 88 73 81 72 81 70 64 63 77 95 103 94 84 89 93 92 92 91 81 66 74 81 89 98 103
302 304 249 269 275 314 273 224 88 75 47 41 36 46 50 96 83 93 74 61 71 69 78 63 75 69 59 72 85 86 90 87 83 83 85 87 89 87 91 73 78 87 97 107
359 309 359 20 315 332 32 66 68 73 57 62 63 62 74 62 60 61 75 86 78 78 72 74 69 67 68 80 86 87 86 83 85 85 85 83 83 87 92 97 96 88 92 105
350 328 305 332 12 5 20 45 54 52 48 60 66 66 68 78 74 72 72 68 81 78 70 72 75 71 71 77 80 82 82 79 79 75 71 72 73 72 71 70 70 81 92 70
321 345 16 28 26 11 23 48 64 64 66 71 77 78 81 79 77 70 62 63 73 69 67 67 67 64 70 76 78 74 72 73 74 74 72 69 68 71 69 70 69 64 58 52
339 336 13 14 35 26 39 50 74 77 79 81 86 90 89 88 80 74 70 67 67 65 63 63 64 62 64 67 73 75 76 72 75 73 72 71 69 70 69 69 73 73 68 44
345 24 35 55 43 68 66 64 73 77 83 85 83 82 81 81 87 83 79 79 73 64 58 60 65 65 64 66 71 73 75 75 73 72 70 69 66 63 63 64 61 66 66 58
20 35 34 56 57 103 99 93 87 90 88 93 91 86 86 83 82 82 82 73 69 70 52 61 65 66 65 63 68 71 73 74 72 69 71 70 65 62 63 62 62 55 53 48
49 56 60 61 59 89 92 88 95 90 90 93 91 87 82 77 80 81 77 72 63 69 70 67 68 65 64 61 65 68 69 70 74 70 67 70 67 58 52 54 57 47 34 45
50 59 67 73 71 66 74 79 88 87 86 86 89 88 86 81 75 77 78 76 57 60 62 62 64 63 63 66 66 68 71 74 72 71 71 69 68 59 52 47 47 43 41 38
57 65 70 72 76 71 69 78 83 85 85 84 83 85 84 80 79 74 63 74 68 64 66 62 61 61 63 66 67 69 72 72 72 72 66 68 73 74 61 56 59 41 31 13
65 69 71 70 72 75 71 68 69 75 77 76 79 83 82 80 76 82 81 65 70 67 69 66 66 65 63 66 68 67 67 67 68 72 76 76 79 84 84 68 40 23 3 342
68 67 71 73 74 72 73 70 74 74 78 78 77 79 88 93 82 75 80 75 70 68 67 65 61 61 60 65 68 71 75 78 80 75 82 87 84 81 57 31 9 339 329 328
61 67 68 73 77 71 70 68 73 69 71 70 68 70 73 66 82 85 79 74 69 67 60 52 57 57 58 63 77 85 81 80 81 81 68 79 59 36 8 350 326 309 312 304
58 62 60 57 62 64 68 69 73 72 78 78 67 64 67 68 71 76 73 68 66 68 61 41 42 55 68 75 71 64 53 45 44 47 65 55 31 9 331 318 313 312 306 308
57 57 65 63 54 56 63 74 82 76 73 83 84 68 72 72 73 78 77 76 73 68 46 19 8 52 69 59 47 33 29 41 47 67 57 27 340 302 304 308 307 310 312 312